Regional Weather Roundup
Issued by NWS

Home | Current Version | Previous Version | Text Only | Print | Product List | Glossary Off
Versions: 1 2 3 4 5 6 7 8 9 10 11 12 13 14 15 16 17 18 19 20 21 22 23 24 25 26 27 28 29 30 31 32 33 34 35 36 37 38 39 40 41 42 43 44 45 46 47 48 49 50

000
ASUS43 KFSD 071602
RWRSD

WEATHER ROUNDUP FOR SOUTH DAKOTA
NATIONAL WEATHER SERVICE SIOUX FALLS SD
1000 AM CST WED DEC 07 2016

NOTE: "FAIR" INDICATES FEW OR NO CLOUDS BELOW 12,000 FEET WITH NO
SIGNIFICANT WEATHER AND/OR OBSTRUCTIONS TO VISIBILITY.


SDZ001>005-009-010-012>017-071700-
NORTHWEST AND NORTH CENTRAL SOUTH DAKOTA

CITY           SKY/WX    TMP DP  RH WIND       PRES   REMARKS
BUFFALO          N/A      3  -4  72 NW22G32   30.24R WCI -19
FAITH            N/A      3  -2  79 NW28G35   30.28R WCI -21
MOBRIDGE       PTSUNNY    9   0  67 NW31G41   30.23R WCI -14
$$

SDZ012>016-024>037-041>051-057-063-072>074-071700-
SOUTHWEST AND SOUTH CENTRAL SOUTH DAKOTA

CITY           SKY/WX    TMP DP  RH WIND       PRES   REMARKS
RAPID CTY ARPT CLOUDY     8  -2  63 NW29      30.31R WCI -15
PIERRE         CLOUDY     9   2  73 NW21G28   30.31R WCI -11
CUSTER         CLOUDY     2  -4  76 CALM      30.07R
ELLSWORTH AFB  FLURRIES   7  -2  65 NW29G36   30.29  WCI -16
PHILIP         SUNNY      7  -3  64 NW17G25   30.36R WCI -12
PINE RIDGE     CLOUDY     4  -1  80 CALM      30.30R
SPEARFISH      FLURRIES   1  -6  71 W18G25    30.29R WCI -19
WINNER         PTSUNNY    7  -3  64 NW18G26   30.34R WCI -12
$$

SDZ004>011-016>023-039-040-071700-
NORTHEAST SOUTH DAKOTA

CITY           SKY/WX    TMP DP  RH WIND       PRES   REMARKS
ABERDEEN       PTSUNNY   13   2  61 NW25G36   30.18R WCI  -7
WATERTOWN      CLOUDY     9   3  77 W22G33    30.12R HAZE    WCI -11
SISSETON         N/A     15   6  67 NW25G36   30.07R WCI  -4
$$

SDZ017-020-022-023-036>040-048>070-071700-
SOUTHEAST SOUTH DAKOTA

CITY           SKY/WX    TMP DP  RH WIND       PRES   REMARKS
SIOUX FALLS    CLOUDY    13   6  74 NW24G30   30.21R WCI  -7
HURON          CLOUDY    12   3  67 NW21      30.27R WCI  -7
CHAMBERLAIN    CLOUDY     9   1  70 NW15G24   30.32R WCI  -7
MITCHELL       CLOUDY    13   3  64 W17G30    30.29R WCI  -4
YANKTON        CLOUDY    12   3  67 W18G26    30.29R WCI  -5
$$

ABBREVIATIONS USED IN REMARKS
   TC - TEMPERATURE IN CELSIUS
  WCI - WIND CHILL INDEX
   HX - HEAT INDEX
  VSB - VISIBILITY





USA.gov is the U.S. government's official web portal to all federal, state and local government web resources and services.